^^
Station Historical Data
Daily Summary for September 15, 2017 Units:  Metric    English   Both
« Previous Day
Next Day »
Daily Weekly Monthly Yearly Custom
  High: Low: Average:
Temperature: 19.2 °C 10.4 °C 16.3 °C
Dew Point: 7.5 °C 2.4 °C 4.6 °C
Humidity: 73% 34% 47%
Wind Speed: 35.2km/h 0km/h 11.3km/h
Wind Gust: 41.8km/h - -
Wind- - SW
Pressure: 1017.8 hPa 1008.7 hPa -
Precipitation: 0 mm    
Historical Graphs
 
 
Tabular Data for September 15, 2017
Time Temperature Dew Point Pressure Wind Wind Speed Wind Gust Humidity Rainfall Rate (Hourly) solar Conditions
00:01 18.6 °C 2.4 °C 1011.4 hPa West 7.9 km/h 9.7 km/h 34% 0 mm 0.0 W/m2
00:06 18.7 °C 2.5 °C 1011.4 hPa West 7.9 km/h 11.3 km/h 34% 0 mm 0.0 W/m2
00:11 18.7 °C 2.5 °C 1011.4 hPa West 9.7 km/h 9.7 km/h 34% 0 mm 0.0 W/m2
00:16 18.7 °C 2.5 °C 1011.4 hPa West 9.7 km/h 12.9 km/h 34% 0 mm 0.0 W/m2
00:22 18.7 °C 2.9 °C 1011.1 hPa West 6.4 km/h 11.3 km/h 35% 0 mm 0.0 W/m2
00:57 18.1 °C 3.6 °C 1010.7 hPa West 6.4 km/h 8 km/h 38% 0 mm 0.0 W/m2
01:02 18.1 °C 3.6 °C 1010.7 hPa West 7.9 km/h 9.7 km/h 38% 0 mm 0.0 W/m2
01:07 18.1 °C 3.6 °C 1010.7 hPa West 6.4 km/h 8 km/h 38% 0 mm 0.0 W/m2
01:12 18.1 °C 3.6 °C 1010.4 hPa West 6.4 km/h 8 km/h 38% 0 mm 0.0 W/m2
01:22 18 °C 3.5 °C 1010 hPa West 4.7 km/h 8 km/h 38% 0 mm 0.0 W/m2
01:32 17.9 °C 3.4 °C 1010 hPa West 4.7 km/h 8 km/h 38% 0 mm 0.0 W/m2
01:37 17.8 °C 3.3 °C 1010 hPa West 3.2 km/h 6.4 km/h 38% 0 mm 0.0 W/m2
01:42 17.8 °C 3.7 °C 1010 hPa West 4.7 km/h 6.4 km/h 39% 0 mm 0.0 W/m2
01:47 17.8 °C 3.7 °C 1010 hPa West 6.4 km/h 8 km/h 39% 0 mm 0.0 W/m2
01:53 17.8 °C 3.7 °C 1010 hPa West 4.7 km/h 8 km/h 39% 0 mm 0.0 W/m2
01:58 17.7 °C 3.6 °C 1010 hPa West 6.4 km/h 6.4 km/h 39% 0 mm 0.0 W/m2
02:08 17.7 °C 3.6 °C 1010 hPa West 6.4 km/h 8 km/h 39% 0 mm 0.0 W/m2
02:13 17.7 °C 3.6 °C 1010 hPa West 3.2 km/h 6.4 km/h 39% 0 mm 0.0 W/m2
02:18 17.7 °C 3.6 °C 1010 hPa West 4.7 km/h 6.4 km/h 39% 0 mm 0.0 W/m2
02:23 17.7 °C 3.6 °C 1009.7 hPa West 4.7 km/h 6.4 km/h 39% 0 mm 0.0 W/m2
02:33 17.6 °C 3.5 °C 1009.7 hPa West 4.7 km/h 8 km/h 39% 0 mm 0.0 W/m2
02:38 17.6 °C 3.8 °C 1009.7 hPa West 4.7 km/h 6.4 km/h 40% 0 mm 0.0 W/m2
02:43 17.6 °C 3.5 °C 1009.7 hPa West 3.2 km/h 4.8 km/h 39% 0 mm 0.0 W/m2
02:48 17.6 °C 3.5 °C 1009.4 hPa West 3.2 km/h 4.8 km/h 39% 0 mm 0.0 W/m2
02:54 17.5 °C 3.4 °C 1009.4 hPa Calm     39% 0 mm 0.0 W/m2
02:59 17.4 °C 3.3 °C 1009.4 hPa Calm     39% 0 mm 0.0 W/m2
03:04 17.2 °C 3.5 °C 1009.4 hPa Calm     40% 0 mm 0.0 W/m2
03:09 17.1 °C 3.4 °C 1009.4 hPa Calm     40% 0 mm 0.0 W/m2
03:15 17 °C 3.3 °C 1009.4 hPa Calm     40% 0 mm 0.0 W/m2
03:20 16.9 °C 3.2 °C 1009 hPa Calm     40% 0 mm 0.0 W/m2
03:25 16.8 °C 3.5 °C 1009 hPa Calm     41% 0 mm 0.0 W/m2
03:30 16.7 °C 3.4 °C 1009 hPa Calm     41% 0 mm 0.0 W/m2
03:37 16.6 °C 3.3 °C 1009 hPa Calm     41% 0 mm 0.0 W/m2
03:42 16.5 °C 3.2 °C 1008.7 hPa Calm     41% 0 mm 0.0 W/m2
03:47 16.4 °C 3.5 °C 1008.7 hPa Calm     42% 0 mm 0.0 W/m2
03:53 16.4 °C 2.8 °C 1008.7 hPa Calm     40% 0 mm 0.0 W/m2
04:01 16.1 °C 2.8 °C 1009 hPa Calm     41% 0 mm 0.0 W/m2
04:07 16 °C 2.7 °C 1009 hPa Calm     41% 0 mm 0.0 W/m2
04:12 15.8 °C 2.6 °C 1009 hPa Calm     41% 0 mm 0.0 W/m2
04:17 15.7 °C 2.8 °C 1009 hPa Calm     42% 0 mm 0.0 W/m2
04:23 15.7 °C 2.8 °C 1008.7 hPa Calm     42% 0 mm 0.0 W/m2
04:28 15.7 °C 2.5 °C 1008.7 hPa Calm     41% 0 mm 0.0 W/m2
04:33 15.7 °C 2.8 °C 1008.7 hPa Calm     42% 0 mm 0.0 W/m2
04:38 15.8 °C 2.9 °C 1009 hPa Calm     42% 0 mm 0.0 W/m2
04:43 15.8 °C 2.9 °C 1009 hPa Calm     42% 0 mm 0.0 W/m2
04:48 15.7 °C 3.2 °C 1009 hPa Calm     43% 0 mm 0.0 W/m2
04:54 15.8 °C 3.2 °C 1009 hPa Calm     43% 0 mm 0.0 W/m2
04:59 15.8 °C 3.2 °C 1009 hPa Calm     43% 0 mm 0.0 W/m2
05:04 15.8 °C 3.2 °C 1009 hPa Calm     43% 0 mm 0.0 W/m2
05:10 15.7 °C 3.2 °C 1009 hPa Calm     43% 0 mm 0.0 W/m2
05:25 15.7 °C 3.2 °C 1009 hPa Calm     43% 0 mm 0.0 W/m2
05:35 15.6 °C 3.4 °C 1009 hPa Calm     44% 0 mm 0.0 W/m2
05:40 15.7 °C 3.2 °C 1009.4 hPa Calm     43% 0 mm 0.0 W/m2
05:46 15.8 °C 3.2 °C 1009.4 hPa Calm     43% 0 mm 0.0 W/m2
05:52 15.9 °C 3.3 °C 1009.4 hPa Calm     43% 0 mm 0.0 W/m2
05:57 16.1 °C 3.5 °C 1009.4 hPa Calm     43% 0 mm 0.0 W/m2
06:02 16.1 °C 3.5 °C 1009.7 hPa Calm     43% 0 mm 0.0 W/m2
06:08 16.1 °C 3.5 °C 1009.7 hPa Calm     43% 0 mm 0.0 W/m2
06:15 16.2 °C 3.6 °C 1009.7 hPa Calm     43% 0 mm 0.0 W/m2
06:27 16.4 °C 3.8 °C 1009.7 hPa Calm     43% 0 mm 0.0 W/m2
06:41 16.2 °C 3.6 °C 1009.4 hPa Calm     43% 0 mm 0.0 W/m2
06:54 15.9 °C 3.7 °C 1009.4 hPa Calm     44% 0 mm 0.0 W/m2
07:09 15.2 °C 3.3 °C 1009.7 hPa Calm     45% 0 mm 16.0 W/m2
07:27 14.9 °C 3.4 °C 1009.7 hPa Calm     46% 0 mm 33.0 W/m2
08:07 15.9 °C 4.6 °C 1010.7 hPa WSW 14.3 km/h 19.3 km/h 47% 0 mm 137.0 W/m2
08:29 15.8 °C 4.8 °C 1011.1 hPa SW 17.7 km/h 25.7 km/h 48% 0 mm 199.0 W/m2
08:39 15.3 °C 4.9 °C 1011.4 hPa SW 17.7 km/h 24.1 km/h 50% 0 mm 257.0 W/m2
09:12 15.9 °C 5.2 °C 1011.4 hPa SW 13 km/h 19.3 km/h 49% 0 mm 308.0 W/m2
09:26 16.7 °C 5 °C 1011.4 hPa SW 14.3 km/h 16.1 km/h 46% 0 mm 374.0 W/m2
09:41 17.2 °C 4.8 °C 1011.4 hPa SW 16.3 km/h 19.3 km/h 44% 0 mm 420.0 W/m2
09:56 17.6 °C 5.5 °C 1011.1 hPa SW 13 km/h 17.7 km/h 45% 0 mm 464.0 W/m2
10:10 18 °C 5.9 °C 1011.1 hPa SW 13 km/h 17.7 km/h 45% 0 mm 508.0 W/m2
10:26 18.6 °C 5.4 °C 1011.1 hPa SW 11.1 km/h 14.5 km/h 42% 0 mm 543.0 W/m2
10:41 19.2 °C 5.6 °C 1010.7 hPa SW 17.7 km/h 19.3 km/h 41% 0 mm 570.0 W/m2
11:28 18.6 °C 6.4 °C 1011.1 hPa SW 19.5 km/h 29 km/h 45% 0 mm 652.0 W/m2
11:43 18.4 °C 6.6 °C 1011.1 hPa SW 24.1 km/h 30.6 km/h 46% 0 mm 679.0 W/m2
11:58 18.9 °C 6.7 °C 1011.1 hPa SSW 14.3 km/h 24.1 km/h 45% 0 mm 693.0 W/m2
12:11 19.2 °C 6.7 °C 1011.1 hPa SSW 22.7 km/h 29 km/h 44% 0 mm 700.0 W/m2
12:20 19.1 °C 6.9 °C 1011.1 hPa SSW 20.9 km/h 27.4 km/h 45% 0 mm 710.0 W/m2
12:27 18.8 °C 6.9 °C 1011.4 hPa SSW 27.4 km/h 30.6 km/h 46% 0 mm 717.0 W/m2
12:37 18.9 °C 7 °C 1011.1 hPa South 28.8 km/h 33.8 km/h 46% 0 mm 714.0 W/m2
12:58 18.7 °C 7.2 °C 1011.1 hPa SSW 25.9 km/h 32.2 km/h 47% 0 mm 719.0 W/m2
13:12 18.7 °C 7.2 °C 1011.4 hPa SSW 22.7 km/h 32.2 km/h 47% 0 mm 715.0 W/m2
13:23 18.4 °C 7.2 °C 1011.1 hPa SSW 28.8 km/h 35.4 km/h 48% 0 mm 710.0 W/m2
13:34 18.3 °C 7.4 °C 1011.4 hPa SSW 28.8 km/h 35.4 km/h 49% 0 mm 705.0 W/m2
13:40 18.3 °C 7.4 °C 1011.4 hPa SSW 25.9 km/h 38.6 km/h 49% 0 mm 705.0 W/m2
13:49 18.6 °C 7.4 °C 1011.4 hPa SSW 35.2 km/h 38.6 km/h 48% 0 mm 675.0 W/m2
13:58 18.6 °C 7.4 °C 1011.4 hPa SSW 28.8 km/h 35.4 km/h 48% 0 mm 661.0 W/m2
14:12 18.8 °C 7.2 °C 1011.4 hPa SSW 30.6 km/h 35.4 km/h 47% 0 mm 647.0 W/m2
14:33 18.3 °C 7.1 °C 1011.7 hPa SSW 35.2 km/h 35.4 km/h 48% 0 mm 596.0 W/m2
14:49 18.2 °C 7.3 °C 1011.7 hPa South 27.4 km/h 32.2 km/h 49% 0 mm 555.0 W/m2
15:45 17.2 °C 7.5 °C 1012.4 hPa South 28.8 km/h 33.8 km/h 53% 0 mm 431.0 W/m2
16:00 17.1 °C 7.4 °C 1012.8 hPa SSW 30.6 km/h 37 km/h 53% 0 mm 420.0 W/m2
16:14 16.4 °C 7.3 °C 1012.8 hPa South 28.8 km/h 40.2 km/h 55% 0 mm 271.0 W/m2
16:28 16 °C 7.2 °C 1013.1 hPa SSW 30.6 km/h 38.6 km/h 56% 0 mm 264.0 W/m2
16:59 15.2 °C 6.7 °C 1013.4 hPa South 33.8 km/h 38.6 km/h 57% 0 mm 186.0 W/m2
17:45 13.8 °C 6.4 °C 1014.4 hPa SSW 33.8 km/h 41.8 km/h 61% 0 mm 118.0 W/m2
19:26 12.6 °C 6.4 °C 1015.8 hPa SSW 27.4 km/h 30.6 km/h 66% 0 mm 0.0 W/m2
20:26 12.3 °C 6.8 °C 1016.5 hPa South 17.7 km/h 27.4 km/h 69% 0 mm 0.0 W/m2
20:45 12.2 °C 6.7 °C 1016.8 hPa SSW 19.5 km/h 27.4 km/h 69% 0 mm 0.0 W/m2
21:14 12 °C 6.3 °C 1017.2 hPa SSW 24.1 km/h 30.6 km/h 68% 0 mm 0.0 W/m2
21:29 11.8 °C 6.1 °C 1017.5 hPa South 27.4 km/h 27.4 km/h 68% 0 mm 0.0 W/m2
21:39 11.8 °C 6.3 °C 1017.5 hPa South 22.7 km/h 27.4 km/h 69% 0 mm 0.0 W/m2
21:50 11.7 °C 6.2 °C 1017.8 hPa South 27.4 km/h 30.6 km/h 69% 0 mm 0.0 W/m2
22:04 11.5 °C 6.2 °C 1017.8 hPa South 25.9 km/h 25.9 km/h 70% 0 mm 0.0 W/m2
22:19 11.3 °C 6 °C 1017.5 hPa South 16.3 km/h 25.7 km/h 70% 0 mm 0.0 W/m2
22:28 11.2 °C 6.1 °C 1017.5 hPa South 19.5 km/h 25.7 km/h 71% 0 mm 0.0 W/m2
22:39 11.1 °C 6 °C 1017.8 hPa South 17.7 km/h 24.1 km/h 71% 0 mm 0.0 W/m2
22:49 11.1 °C 6 °C 1017.8 hPa South 24.1 km/h 25.7 km/h 71% 0 mm 0.0 W/m2
23:09 10.9 °C 6.1 °C 1017.8 hPa South 17.7 km/h 29 km/h 72% 0 mm 0.0 W/m2
23:19 10.8 °C 6 °C 1017.8 hPa South 19.5 km/h 29 km/h 72% 0 mm 0.0 W/m2
23:29 10.7 °C 6.1 °C 1017.8 hPa South 19.5 km/h 25.7 km/h 73% 0 mm 0.0 W/m2
23:39 10.6 °C 5.8 °C 1017.8 hPa South 24.1 km/h 30.6 km/h 72% 0 mm 0.0 W/m2
23:54 10.4 °C 5.8 °C 1017.8 hPa South 19.5 km/h 27.4 km/h 73% 0 mm 0.0 W/m2
Canyon Roadhouse, Fishriver Canyon, Namibia
Compliments of Weather Underground - 2.25 mb